Time,B instrument,Bx,By,Bz,sigma B,Ion instrument,Status,Tp_par,Tp_perp,carrot,r_sun,clat,clong,earth_he_angle,n_p,vp_x,vp_y,vp_z,vth_p_par,vth_p_perp
1980-06-06 00:00:16,-1,nan,nan,nan,nan,2,4,nan,nan,1695,0.35620689,5.8317137,88.362946,54.300446,nan,nan,nan,nan,nan,nan
1980-06-06 00:00:57,-1,nan,nan,nan,nan,2,4,nan,nan,1695,0.35620689,5.8317137,88.359039,54.300446,nan,nan,nan,nan,nan,nan
1980-06-06 00:01:37,-1,nan,nan,nan,nan,2,4,nan,nan,1695,0.35621399,5.8319883,88.354248,54.303467,nan,nan,nan,nan,nan,nan
1980-06-06 00:03:39,-1,nan,nan,nan,nan,2,4,nan,nan,1695,0.35622829,5.8325386,88.344696,54.30954,nan,nan,nan,nan,nan,nan
1980-06-06 00:04:19,-1,nan,nan,nan,nan,2,4,nan,nan,1695,0.35623544,5.8328133,88.33992,54.312576,nan,nan,nan,nan,nan,nan
1980-06-06 00:05:40,-1,nan,nan,nan,nan,2,4,nan,nan,1695,0.3562426,5.8330879,88.331238,54.315613,nan,nan,nan,nan,nan,nan
1980-06-06 00:06:21,-1,nan,nan,nan,nan,2,4,nan,nan,1695,0.35624975,5.8333635,88.326447,54.318634,nan,nan,nan,nan,nan,nan
1980-06-06 00:07:01,-1,nan,nan,nan,nan,2,4,nan,nan,1695,0.3562569,5.8336382,88.325577,54.321671,nan,nan,nan,nan,nan,nan
1980-06-06 00:07:42,-1,nan,nan,nan,nan,2,4,nan,nan,1695,0.3562569,5.8336382,88.317764,54.321671,nan,nan,nan,nan,nan,nan
1980-06-06 00:08:22,-1,nan,nan,nan,nan,2,4,nan,nan,1695,0.35626405,5.8339128,88.312988,54.324707,nan,nan,nan,nan,nan,nan
1980-06-06 00:09:03,-1,nan,nan,nan,nan,2,4,nan,nan,1695,0.35627121,5.8341885,88.312119,54.327744,nan,nan,nan,nan,nan,nan
1980-06-06 00:09:43,-1,nan,nan,nan,nan,2,4,nan,nan,1695,0.35627121,5.8341885,88.304306,54.327744,nan,nan,nan,nan,nan,nan
1980-06-06 00:10:24,-1,nan,nan,nan,nan,2,4,nan,nan,1695,0.35627836,5.8344631,88.303436,54.33078,nan,nan,nan,nan,nan,nan
1980-06-06 00:11:04,-1,nan,nan,nan,nan,2,4,nan,nan,1695,0.35628551,5.8347378,88.298645,54.333801,nan,nan,nan,nan,nan,nan
1980-06-06 00:11:45,-1,nan,nan,nan,nan,2,4,nan,nan,1695,0.35628551,5.8347378,88.290833,54.333801,nan,nan,nan,nan,nan,nan
1980-06-06 00:12:26,-1,nan,nan,nan,nan,2,4,nan,nan,1695,0.35629267,5.8350134,88.289963,54.336838,nan,nan,nan,nan,nan,nan
1980-06-06 00:13:46,-1,nan,nan,nan,nan,2,4,nan,nan,1695,0.35629982,5.835288,88.281281,54.339874,nan,nan,nan,nan,nan,nan
1980-06-06 00:15:07,-1,nan,nan,nan,nan,2,4,nan,nan,1695,0.35631406,5.8358383,88.275635,54.345947,nan,nan,nan,nan,nan,nan
1980-06-06 00:17:09,-1,nan,nan,nan,nan,2,4,nan,nan,1695,0.35632837,5.8363876,88.262161,54.352005,nan,nan,nan,nan,nan,nan
1980-06-06 00:18:30,-1,nan,nan,nan,nan,2,4,nan,nan,1695,0.35633552,5.8366632,88.253479,54.355042,nan,nan,nan,nan,nan,nan
1980-06-06 00:19:10,-1,nan,nan,nan,nan,2,4,nan,nan,1695,0.35634267,5.8369379,88.248703,54.358078,nan,nan,nan,nan,nan,nan
1980-06-06 00:19:51,-1,nan,nan,nan,nan,2,4,nan,nan,1695,0.35634267,5.8369379,88.240891,54.358078,nan,nan,nan,nan,nan,nan
1980-06-06 00:20:31,-1,nan,nan,nan,nan,2,4,nan,nan,1695,0.35634983,5.8372126,88.240021,54.361115,nan,nan,nan,nan,nan,nan
1980-06-06 00:21:12,-1,nan,nan,nan,nan,2,4,nan,nan,1695,0.35635698,5.8374882,88.235229,54.364136,nan,nan,nan,nan,nan,nan
1980-06-06 00:21:53,-1,nan,nan,nan,nan,2,4,nan,nan,1695,0.35635698,5.8374882,88.231323,54.364136,nan,nan,nan,nan,nan,nan
1980-06-06 00:22:33,-1,nan,nan,nan,nan,2,4,nan,nan,1695,0.35636413,5.8377628,88.226547,54.367172,nan,nan,nan,nan,nan,nan
1980-06-06 00:23:13,-1,nan,nan,nan,nan,2,4,nan,nan,1695,0.35637128,5.8380375,88.221771,54.370209,nan,nan,nan,nan,nan,nan
1980-06-06 00:23:54,-1,nan,nan,nan,nan,2,4,nan,nan,1695,0.35637128,5.8380375,88.217865,54.370209,nan,nan,nan,nan,nan,nan
1980-06-06 00:24:34,-1,nan,nan,nan,nan,2,4,nan,nan,1695,0.35637844,5.8383131,88.213089,54.373245,nan,nan,nan,nan,nan,nan
1980-06-06 00:25:15,-1,nan,nan,nan,nan,2,4,nan,nan,1695,0.35638553,5.8385878,88.212219,54.376282,nan,nan,nan,nan,nan,nan
1980-06-06 00:25:55,-1,nan,nan,nan,nan,1,4,nan,nan,1695,0.35638559,5.8385878,88.204407,54.376282,nan,nan,nan,nan,nan,nan
1980-06-06 00:26:36,-1,nan,nan,nan,nan,1,4,nan,nan,1695,0.35639268,5.8388624,88.203522,54.379303,nan,nan,nan,nan,nan,nan
1980-06-06 00:27:16,2,-27.99,19.23,0.08,0.599166,1,1,180754.0,213643.0,1695,0.35639983,5.839138,88.198746,54.382339,6.40818,291.49,16.8306,11.1879,54.6262,59.3885
1980-06-06 00:27:57,2,-27.92,19.1567,-0.736667,2.02816,1,1,165670.0,203455.0,1695,0.35639983,5.839138,88.190933,54.382339,6.82715,308.446,38.4034,4.54606,52.2973,57.9552
1980-06-06 00:28:38,-1,nan,nan,nan,nan,1,4,nan,nan,1695,0.35640699,5.8394127,88.190063,54.385376,nan,nan,nan,nan,nan,nan
1980-06-06 00:29:18,2,-28.6133,18.6033,-0.1,0.301072,1,1,186932.0,228191.0,1695,0.35641414,5.8396873,88.185287,54.388412,7.01193,288.87,12.3781,7.78185,55.552,61.3772
1980-06-06 00:29:59,2,-29.5267,17.3267,0.0166667,0.419841,1,1,151328.0,187931.0,1695,0.35641414,5.8396873,88.181381,54.388412,5.6964,291.752,11.812,17.5294,49.9825,55.7003
1980-06-06 00:30:39,2,-29.3175,17.395,0.6925,0.335354,1,1,134327.0,160013.0,1695,0.35642129,5.839963,88.176605,54.391449,5.41315,291.957,6.55438,16.1775,47.0912,51.3967
1980-06-06 00:31:20,2,-29.0933,17.59,0.946667,0.219646,1,1,125951.0,168628.0,1695,0.35642844,5.8402376,88.171814,54.39447,5.30595,289.974,6.8077,19.2893,45.5993,52.7621
1980-06-06 00:32:00,2,-28.8,18.08,0.733333,0.335294,1,1,167104.0,172792.0,1695,0.3564356,5.8405123,88.170944,54.397507,6.02091,290.317,16.3352,21.5751,52.5232,53.4096
1980-06-06 00:32:41,2,-29.0767,17.7,0.456667,0.82088,1,1,153253.0,151451.0,1695,0.3564356,5.8405123,88.163132,54.397507,5.58338,291.934,12.8958,17.0126,50.2993,50.0027
1980-06-06 00:33:21,2,-30.18,15.87,0.62,0.555653,1,1,141267.0,207804.0,1695,0.35644275,5.8407879,88.162262,54.400543,6.28392,274.739,-19.0173,24.4358,48.2924,58.5713
1980-06-06 00:34:01,2,-29.8533,16.0433,1.99667,0.635767,1,1,215233.0,219115.0,1695,0.3564499,5.8410625,88.157486,54.40358,7.5404,280.858,7.37527,23.4244,59.6091,60.1442
1980-06-06 00:34:42,2,-30.2433,14.3567,4.09333,0.613895,1,1,153011.0,282582.0,1695,0.3564499,5.8410625,88.149673,54.40358,8.59771,280.619,-16.7584,43.3383,50.2596,68.3015
1980-06-06 00:35:22,2,-30.5075,13.46,3.8175,2.63401,1,1,104598.0,199452.0,1695,0.35645705,5.8413372,88.148804,54.406616,5.79958,294.297,-2.39091,14.2818,41.5547,57.3821
1980-06-06 00:36:03,-1,nan,nan,nan,nan,1,4,nan,nan,1695,0.35646421,5.8416128,88.144012,54.409637,nan,nan,nan,nan,nan,nan
1980-06-06 00:38:45,-1,nan,nan,nan,nan,2,4,nan,nan,1695,0.35647845,5.8421621,88.126648,54.41571,nan,nan,nan,nan,nan,nan
1980-06-06 00:39:26,-1,nan,nan,nan,nan,2,4,nan,nan,1695,0.35648561,5.8424377,88.121872,54.418747,nan,nan,nan,nan,nan,nan
1980-06-06 00:40:06,-1,nan,nan,nan,nan,2,4,nan,nan,1695,0.35649276,5.8427124,88.121002,54.421783,nan,nan,nan,nan,nan,nan
1980-06-06 00:41:27,-1,nan,nan,nan,nan,2,4,nan,nan,1695,0.35649991,5.8429871,88.112305,54.424805,nan,nan,nan,nan,nan,nan
1980-06-06 00:42:08,-1,nan,nan,nan,nan,2,4,nan,nan,1695,0.35650706,5.8432627,88.107529,54.427841,nan,nan,nan,nan,nan,nan
1980-06-06 00:42:48,-1,nan,nan,nan,nan,2,4,nan,nan,1695,0.35650706,5.8432627,88.099716,54.427841,nan,nan,nan,nan,nan,nan
1980-06-06 00:43:29,-1,nan,nan,nan,nan,2,4,nan,nan,1695,0.35651422,5.8435373,88.098846,54.430878,nan,nan,nan,nan,nan,nan
1980-06-06 00:44:09,-1,nan,nan,nan,nan,2,4,nan,nan,1695,0.35652137,5.843812,88.09407,54.433914,nan,nan,nan,nan,nan,nan
1980-06-06 00:45:30,2,-31.365,12.435,-1.775,0.523713,2,1,376616.0,260689.0,1695,0.35652852,5.8440876,88.085388,54.436951,63.8999,267.072,-11.0346,-14.9007,78.8511,65.6023
1980-06-06 00:46:10,-1,nan,nan,nan,nan,2,4,nan,nan,1695,0.35653567,5.8443623,88.080597,54.439972,nan,nan,nan,nan,nan,nan
1980-06-06 00:46:51,-1,nan,nan,nan,nan,2,4,nan,nan,1695,0.35653567,5.8443623,88.076691,54.439972,nan,nan,nan,nan,nan,nan
1980-06-06 00:47:32,-1,nan,nan,nan,nan,2,4,nan,nan,1695,0.35654283,5.8446369,88.071915,54.443008,nan,nan,nan,nan,nan,nan
1980-06-06 00:48:12,-1,nan,nan,nan,nan,2,4,nan,nan,1695,0.35654998,5.8449125,88.071045,54.446045,nan,nan,nan,nan,nan,nan
1980-06-06 00:49:33,-1,nan,nan,nan,nan,2,4,nan,nan,1695,0.35655707,5.8451872,88.062363,54.449081,nan,nan,nan,nan,nan,nan
1980-06-06 00:50:14,-1,nan,nan,nan,nan,2,4,nan,nan,1695,0.35656422,5.8454618,88.057587,54.452118,nan,nan,nan,nan,nan,nan
1980-06-06 00:50:54,-1,nan,nan,nan,nan,2,4,nan,nan,1695,0.35656422,5.8454618,88.049774,54.452118,nan,nan,nan,nan,nan,nan
1980-06-06 00:51:35,-1,nan,nan,nan,nan,2,4,nan,nan,1695,0.35657138,5.8457375,88.048889,54.455139,nan,nan,nan,nan,nan,nan
1980-06-06 00:52:15,-1,nan,nan,nan,nan,2,4,nan,nan,1695,0.35657853,5.8460121,88.044113,54.458176,nan,nan,nan,nan,nan,nan
1980-06-06 00:52:56,-1,nan,nan,nan,nan,2,4,nan,nan,1695,0.35657853,5.8460121,88.040207,54.458176,nan,nan,nan,nan,nan,nan
1980-06-06 00:53:36,-1,nan,nan,nan,nan,2,4,nan,nan,1695,0.35658568,5.8462868,88.035431,54.461212,nan,nan,nan,nan,nan,nan
1980-06-06 00:54:17,-1,nan,nan,nan,nan,2,4,nan,nan,1695,0.35659283,5.8465624,88.030655,54.464249,nan,nan,nan,nan,nan,nan
1980-06-06 00:54:57,-1,nan,nan,nan,nan,2,4,nan,nan,1695,0.35659283,5.8465624,88.026749,54.464249,nan,nan,nan,nan,nan,nan
1980-06-06 00:55:38,-1,nan,nan,nan,nan,2,4,nan,nan,1695,0.35659999,5.846837,88.021973,54.467285,nan,nan,nan,nan,nan,nan
1980-06-06 00:56:18,-1,nan,nan,nan,nan,2,4,nan,nan,1695,0.35660714,5.8471117,88.021088,54.470306,nan,nan,nan,nan,nan,nan
1980-06-06 00:56:59,-1,nan,nan,nan,nan,2,4,nan,nan,1695,0.35660714,5.8471117,88.013275,54.470306,nan,nan,nan,nan,nan,nan
1980-06-06 00:57:39,-1,nan,nan,nan,nan,2,4,nan,nan,1695,0.35661429,5.8473873,88.008499,54.473343,nan,nan,nan,nan,nan,nan
1980-06-06 00:58:20,-1,nan,nan,nan,nan,2,4,nan,nan,1695,0.35662144,5.847662,88.007629,54.476379,nan,nan,nan,nan,nan,nan
1980-06-06 00:59:00,-1,nan,nan,nan,nan,2,4,nan,nan,1695,0.3566286,5.8479366,88.002853,54.479416,nan,nan,nan,nan,nan,nan
1980-06-06 00:59:41,-1,nan,nan,nan,nan,2,4,nan,nan,1695,0.3566286,5.8479366,87.998947,54.479416,nan,nan,nan,nan,nan,nan
1980-06-06 01:00:21,-1,nan,nan,nan,nan,2,4,nan,nan,1695,0.35663575,5.8482122,87.994171,54.482452,nan,nan,nan,nan,nan,nan
1980-06-06 01:01:02,-1,nan,nan,nan,nan,2,4,nan,nan,1695,0.3566429,5.848485,87.993286,54.485474,nan,nan,nan,nan,nan,nan
1980-06-06 01:01:42,-1,nan,nan,nan,nan,2,4,nan,nan,1695,0.3566429,5.848485,87.985474,54.485474,nan,nan,nan,nan,nan,nan
1980-06-06 01:03:03,-1,nan,nan,nan,nan,2,4,nan,nan,1695,0.35665721,5.8490305,87.979797,54.491516,nan,nan,nan,nan,nan,nan
1980-06-06 01:03:44,-1,nan,nan,nan,nan,2,4,nan,nan,1695,0.35665721,5.8490305,87.971985,54.491516,nan,nan,nan,nan,nan,nan
1980-06-06 01:04:24,-1,nan,nan,nan,nan,2,4,nan,nan,1695,0.35666442,5.8493032,87.9711,54.494537,nan,nan,nan,nan,nan,nan
1980-06-06 01:05:05,-1,nan,nan,nan,nan,2,4,nan,nan,1695,0.35667157,5.849576,87.966324,54.497574,nan,nan,nan,nan,nan,nan
1980-06-06 01:05:45,-1,nan,nan,nan,nan,2,4,nan,nan,1695,0.35667157,5.849576,87.958511,54.497574,nan,nan,nan,nan,nan,nan
1980-06-06 01:06:26,-1,nan,nan,nan,nan,2,4,nan,nan,1695,0.35667872,5.8498487,87.957626,54.500595,nan,nan,nan,nan,nan,nan
1980-06-06 01:07:47,-1,nan,nan,nan,nan,2,4,nan,nan,1695,0.35668594,5.8501215,87.948929,54.503616,nan,nan,nan,nan,nan,nan
1980-06-06 01:08:27,-1,nan,nan,nan,nan,2,4,nan,nan,1695,0.35669309,5.8503942,87.944138,54.506638,nan,nan,nan,nan,nan,nan
1980-06-06 01:09:08,-1,nan,nan,nan,nan,2,4,nan,nan,1695,0.35670024,5.850667,87.939346,54.509659,nan,nan,nan,nan,nan,nan
1980-06-06 01:09:48,-1,nan,nan,nan,nan,2,4,nan,nan,1695,0.35670024,5.850667,87.935455,54.509674,nan,nan,nan,nan,nan,nan
1980-06-06 01:10:29,-1,nan,nan,nan,nan,2,4,nan,nan,1695,0.35670745,5.8509398,87.930664,54.512695,nan,nan,nan,nan,nan,nan
1980-06-06 01:11:09,-1,nan,nan,nan,nan,2,4,nan,nan,1695,0.35671461,5.8512125,87.929779,54.515717,nan,nan,nan,nan,nan,nan
1980-06-06 01:11:50,-1,nan,nan,nan,nan,2,4,nan,nan,1695,0.35671461,5.8512125,87.921967,54.515717,nan,nan,nan,nan,nan,nan
1980-06-06 01:12:30,-1,nan,nan,nan,nan,2,4,nan,nan,1695,0.35672176,5.8514853,87.921082,54.518738,nan,nan,nan,nan,nan,nan
1980-06-06 01:13:11,-1,nan,nan,nan,nan,2,4,nan,nan,1695,0.35672891,5.851758,87.91629,54.521759,nan,nan,nan,nan,nan,nan
1980-06-06 01:13:51,-1,nan,nan,nan,nan,2,4,nan,nan,1695,0.35672897,5.851759,87.908478,54.521759,nan,nan,nan,nan,nan,nan
1980-06-06 01:14:32,-1,nan,nan,nan,nan,2,4,nan,nan,1695,0.35673612,5.8520317,87.907608,54.524796,nan,nan,nan,nan,nan,nan
1980-06-06 01:15:12,-1,nan,nan,nan,nan,2,4,nan,nan,1695,0.35674328,5.8523045,87.902817,54.527817,nan,nan,nan,nan,nan,nan
1980-06-06 01:15:53,-1,nan,nan,nan,nan,2,4,nan,nan,1695,0.35674328,5.8523045,87.898911,54.527817,nan,nan,nan,nan,nan,nan
1980-06-06 01:16:33,-1,nan,nan,nan,nan,2,4,nan,nan,1695,0.35675043,5.8525772,87.894119,54.530838,nan,nan,nan,nan,nan,nan
1980-06-06 01:18:35,-1,nan,nan,nan,nan,2,4,nan,nan,1695,0.35676479,5.8531227,87.880646,54.536896,nan,nan,nan,nan,nan,nan
1980-06-06 01:19:15,-1,nan,nan,nan,nan,2,4,nan,nan,1695,0.35677195,5.8533955,87.879761,54.539917,nan,nan,nan,nan,nan,nan
1980-06-06 01:19:56,-1,nan,nan,nan,nan,2,4,nan,nan,1695,0.35677195,5.8533955,87.871948,54.539917,nan,nan,nan,nan,nan,nan
1980-06-06 01:20:36,-1,nan,nan,nan,nan,2,4,nan,nan,1695,0.35677916,5.8536682,87.867157,54.542938,nan,nan,nan,nan,nan,nan
1980-06-06 01:21:17,-1,nan,nan,nan,nan,2,4,nan,nan,1695,0.35678631,5.853941,87.866272,54.545959,nan,nan,nan,nan,nan,nan
1980-06-06 01:21:57,-1,nan,nan,nan,nan,2,4,nan,nan,1695,0.35674426,5.8507109,87.799652,54.487152,nan,nan,nan,nan,nan,nan
1980-06-06 01:22:38,-1,nan,nan,nan,nan,2,4,nan,nan,1695,0.35679346,5.8542137,87.857574,54.548981,nan,nan,nan,nan,nan,nan
1980-06-06 01:23:18,-1,nan,nan,nan,nan,2,4,nan,nan,1695,0.35680062,5.8544865,87.852798,54.552017,nan,nan,nan,nan,nan,nan
1980-06-06 01:23:59,-1,nan,nan,nan,nan,2,4,nan,nan,1695,0.35680068,5.8544865,87.848892,54.552017,nan,nan,nan,nan,nan,nan
1980-06-06 01:24:39,-1,nan,nan,nan,nan,2,4,nan,nan,1695,0.35680783,5.8547592,87.844101,54.555038,nan,nan,nan,nan,nan,nan
1980-06-06 01:25:20,-1,nan,nan,nan,nan,2,4,nan,nan,1695,0.35681498,5.855032,87.83931,54.55806,nan,nan,nan,nan,nan,nan
1980-06-06 01:26:00,-1,nan,nan,nan,nan,2,4,nan,nan,1695,0.35682213,5.8553047,87.838425,54.561081,nan,nan,nan,nan,nan,nan
1980-06-06 01:26:41,-1,nan,nan,nan,nan,1,4,nan,nan,1695,0.35682213,5.8553047,87.830612,54.561081,nan,nan,nan,nan,nan,nan
1980-06-06 01:27:21,2,-26.4133,22.6933,-2.11667,0.605475,1,1,111267.0,132625.0,1695,0.35682935,5.8555775,87.829727,54.564102,3.69908,301.393,44.9478,-5.32537,42.8589,46.7918
1980-06-06 01:28:02,2,-26.86,21.8675,-2.7375,0.71189,1,1,178230.0,154552.0,1695,0.3568365,5.8558502,87.824951,54.567139,5.03991,295.114,39.7849,-15.4611,54.2435,50.512
1980-06-06 01:28:42,2,-26.3133,22.7133,-2.33,0.250289,1,1,120671.0,123167.0,1695,0.3568365,5.8558512,87.817139,54.567139,3.92211,300.095,39.9774,-7.70721,44.6334,45.0927
1980-06-06 01:29:23,2,-26.7933,22.14,-2.72,0.883641,1,1,113853.0,204039.0,1695,0.35684365,5.8561239,87.816254,54.57016,4.95947,305.454,42.0242,-4.54536,43.3542,58.0382
1980-06-06 01:30:03,2,-27.2,21.7233,-2.78667,0.417825,1,1,127994.0,148560.0,1695,0.35685086,5.8563967,87.811462,54.573181,4.08899,295.217,38.7474,-12.5534,45.9677,49.5232
1980-06-06 01:30:44,2,-28.03,19.98,-3.62,0.208806,1,1,166614.0,183329.0,1695,0.35685086,5.8563967,87.807556,54.573181,4.79332,288.552,28.8143,-22.2681,52.4462,55.014
1980-06-06 01:31:24,2,-28.01,20.32,-2.44,0.332165,1,1,116951.0,119620.0,1695,0.35685802,5.8566694,87.802765,54.576202,4.02389,287.652,28.7674,-12.7585,43.94,44.4386
1980-06-06 01:32:05,-1,nan,nan,nan,nan,1,4,nan,nan,1695,0.35686517,5.8569422,87.797974,54.579224,nan,nan,nan,nan,nan,nan
1980-06-06 01:32:45,2,-28.0867,20.7233,-1.16333,0.17282,1,1,144288.0,145242.0,1695,0.35686517,5.8569422,87.794083,54.579239,3.86176,274.915,20.8942,6.69165,48.806,48.967
1980-06-06 01:33:26,2,-26.34,22.4167,-3.64,0.339248,1,1,95604.0,72965.7,1695,0.35687232,5.8572149,87.789291,54.58226,1.96763,290.536,31.9691,-14.0946,39.7279,34.707
1980-06-06 01:34:06,2,-26.5467,22.0867,-3.26667,0.238607,1,1,113458.0,200780.0,1695,0.35687953,5.8574877,87.788406,54.585281,5.27532,294.781,41.0312,-8.46855,43.2789,57.5729
1980-06-06 01:35:27,-1,nan,nan,nan,nan,1,3,nan,nan,1695,0.35688668,5.8577604,87.779709,54.588303,nan,297.352,40.0873,-11.9665,nan,nan
1980-06-06 01:36:08,-1,nan,nan,nan,nan,1,4,nan,nan,1695,0.35689384,5.8580332,87.774918,54.591324,nan,nan,nan,nan,nan,nan
1980-06-06 01:37:29,2,-28.075,19.4475,-2.935,1.42561,1,1,145433.0,181924.0,1695,0.35690105,5.8583059,87.766235,54.59436,5.3422,296.775,31.3354,-13.5196,48.9993,54.8028
1980-06-06 01:38:09,-1,nan,nan,nan,nan,1,4,nan,nan,1695,0.3569082,5.8585787,87.761444,54.597382,nan,nan,nan,nan,nan,nan
1980-06-06 01:38:50,-1,nan,nan,nan,nan,1,4,nan,nan,1695,0.3569082,5.8585787,87.757538,54.597382,nan,nan,nan,nan,nan,nan
1980-06-06 01:39:30,2,-29.9133,17.3567,-2.61333,0.497058,1,1,170858.0,136842.0,1695,0.35691535,5.8588514,87.752747,54.600403,4.35874,263.583,1.78903,-0.599449,53.1099,47.53
1980-06-06 01:40:11,2,-30.455,16.1425,-2.5925,1.07639,1,1,142056.0,202304.0,1695,0.35692257,5.8591242,87.747955,54.603424,6.17462,273.381,5.42437,-9.28228,48.4271,57.791
1980-06-06 01:40:51,2,-31.3267,14.4667,-3.40667,0.465833,1,1,134870.0,125636.0,1695,0.35692257,5.8591242,87.744049,54.603424,4.01861,254.038,-14.8263,-14.8904,47.1862,45.5423
1980-06-06 01:41:32,2,-31.3567,14.0367,-2.86333,0.746369,1,1,205499.0,179236.0,1695,0.35692972,5.8593969,87.739258,54.606445,6.49818,256.235,-19.8097,-8.38994,58.2455,54.3965
1980-06-06 01:42:12,2,-30.5,15.77,-2.72667,1.15199,1,1,151718.0,219392.0,1695,0.35693687,5.8596697,87.738388,54.609482,5.76789,266.751,-11.6668,-8.5599,50.0469,60.1823
1980-06-06 01:42:53,-1,nan,nan,nan,nan,1,4,nan,nan,1695,0.35693687,5.8596706,87.730576,54.609482,nan,nan,nan,nan,nan,nan
1980-06-06 01:43:33,2,-28.7367,18.65,-3.61667,0.769921,1,1,145148.0,188412.0,1695,0.35694402,5.8599434,87.725784,54.612503,5.0868,290.032,25.5348,-17.2111,48.9513,55.7715
1980-06-06 01:44:14,2,-30.0733,16.3967,-2.77,0.815421,1,1,161811.0,191670.0,1695,0.35695124,5.8602161,87.724899,54.615524,5.57817,268.33,-3.6621,-5.41278,51.6847,56.2516
1980-06-06 01:44:54,2,-29.2733,17.87,-1.77,0.452573,1,1,138821.0,223331.0,1695,0.35695124,5.8602161,87.717087,54.615524,6.2736,272.66,8.87384,-0.137516,47.8724,60.7201
1980-06-06 01:45:35,2,-27.91,20.34,-1.97667,0.174992,1,1,108537.0,182169.0,1695,0.35695839,5.8604889,87.716202,54.618546,4.66785,288.786,24.0794,0.546565,42.3299,54.8397
1980-06-06 01:46:15,2,-27.3275,21.44,-1.7025,0.176316,1,1,141768.0,142909.0,1695,0.35696554,5.8607616,87.711426,54.621582,4.36179,277.965,27.1694,-5.53583,48.3778,48.5723
1980-06-06 01:46:56,2,-28.18,20.18,-2.27667,0.202375,1,1,116953.0,182257.0,1695,0.35696554,5.8607616,87.70752,54.621582,5.02284,284.182,20.0769,-3.2637,43.9403,54.853
1980-06-06 01:47:36,2,-29.7933,17.54,-0.166667,0.321213,1,1,107752.0,206308.0,1695,0.35697275,5.8610344,87.702728,54.624603,5.40877,272.589,2.48097,14.2598,42.1765,58.3601
1980-06-06 01:48:17,2,-30.25,16.3767,2.46,0.318259,1,1,123448.0,181233.0,1695,0.35697991,5.8613071,87.697937,54.627625,5.29032,269.077,2.39879,14.0972,45.1439,54.6986
1980-06-06 01:48:57,2,-29.6825,17.64,3.0675,1.17283,1,1,152334.0,165921.0,1695,0.35697991,5.8613071,87.694031,54.627625,4.96439,273.247,-7.57207,36.3931,50.1484,52.3369
1980-06-06 01:49:38,-1,nan,nan,nan,nan,1,4,nan,nan,1695,0.35698706,5.8615799,87.68924,54.630646,nan,nan,nan,nan,nan,nan
1980-06-06 01:50:18,2,-28.5267,20.0933,-0.596667,0.390214,1,1,95246.2,110293.0,1695,0.35699427,5.8618526,87.688354,54.633667,3.5609,267.068,24.7207,22.3557,39.6535,42.671
1980-06-06 01:50:59,2,-27.885,21.195,-1.205,0.532424,1,1,105664.0,130674.0,1695,0.35699427,5.8618526,87.680557,54.633682,3.848,282.291,30.7113,6.43956,41.7658,46.4464
1980-06-06 01:51:39,2,-28.1033,20.9333,-1.06,0.784248,1,1,113826.0,147575.0,1695,0.35700142,5.8621254,87.675766,54.636703,4.12532,286.656,43.342,10.4411,43.3489,49.3587
1980-06-06 01:52:20,2,-27.6733,21.3667,-1.62333,0.749355,1,1,152520.0,213177.0,1695,0.35700858,5.8623981,87.674881,54.639725,6.09515,275.751,41.8788,17.6314,50.179,59.3236
1980-06-06 01:53:00,2,-29.8,17.86,2.015,0.561449,1,1,187818.0,153181.0,1695,0.35701573,5.8626709,87.67009,54.642746,4.97571,269.173,14.8667,22.6031,55.6835,50.2875
1980-06-06 01:53:41,-1,nan,nan,nan,nan,1,4,nan,nan,1695,0.35701573,5.8626709,87.666183,54.642746,nan,nan,nan,nan,nan,nan
1980-06-06 01:54:21,2,-29.84,17.8033,0.69,0.150407,1,1,201333.0,172365.0,1695,0.35702294,5.8629436,87.661392,54.645767,5.0258,266.405,4.79279,20.6162,57.6521,53.3437
1980-06-06 01:55:02,2,-29.5333,18.4733,-0.0666667,0.58606,1,1,125124.0,150358.0,1695,0.35703009,5.8632164,87.656601,54.648788,4.71076,274.258,15.7902,7.48687,45.4495,49.8219
1980-06-06 01:55:42,2,-29.27,18.99,0.38,0.468828,1,1,162517.0,186179.0,1695,0.35703009,5.8632164,87.65271,54.648804,5.40753,268.988,9.71991,25.9588,51.7973,55.4401
1980-06-06 01:56:23,2,-29.395,18.9525,-0.4425,0.338397,1,1,120352.0,137345.0,1695,0.35703725,5.8634892,87.647919,54.651825,3.87176,276.226,15.3906,13.6602,44.5743,47.6173
1980-06-06 01:57:03,2,-29.1767,19.5033,-0.383333,0.145144,1,1,155514.0,149071.0,1695,0.35704446,5.8637619,87.647034,54.654846,4.43899,271.658,27.4035,16.6036,50.669,49.6083
1980-06-06 01:57:44,2,-29.1267,19.28,-0.773333,0.42037,1,1,117100.0,151340.0,1695,0.35704446,5.8637629,87.639221,54.654846,4.48429,278.776,22.601,15.1809,43.9679,49.9845
1980-06-06 01:58:24,2,-28.6567,19.96,0.28,0.338461,1,1,135771.0,132174.0,1695,0.35705161,5.8640347,87.638336,54.657867,4.37907,285.715,41.0601,16.6526,47.3436,46.7122
1980-06-06 01:59:05,2,-28.32,20.165,1.36,0.351177,1,1,98311.6,125595.0,1695,0.35705876,5.8643074,87.633545,54.660889,3.86006,281.938,25.2159,17.1008,40.2866,45.5348
1980-06-06 01:59:45,2,-28.2467,20.3,1.69,0.386638,1,1,160122.0,145793.0,1695,0.35705876,5.8643084,87.625732,54.660889,4.42633,287.52,33.1552,34.0005,51.4143,49.0599
1980-06-06 02:00:26,2,-28.6733,19.93,1.50333,0.214424,1,1,138126.0,176624.0,1695,0.35706598,5.8645811,87.624863,54.663925,5.35767,280.562,28.2117,26.4478,47.7525,53.9986
1980-06-06 02:01:06,2,-28.67,19.6433,2.07333,0.518823,1,1,129433.0,146829.0,1695,0.35707313,5.864851,87.620056,54.666931,4.58368,279.613,24.3,32.3527,46.2254,49.2339
1980-06-06 02:01:47,2,-28.6467,19.5367,2.46333,0.266208,1,1,150571.0,188146.0,1695,0.35707313,5.864852,87.61615,54.666931,5.52352,277.858,21.7199,25.7823,49.8573,55.7321
1980-06-06 02:02:27,2,-28.58,19.34,2.83667,0.427655,1,1,109703.0,144196.0,1695,0.35708034,5.8651218,87.611359,54.669952,4.27837,288.732,28.6111,37.7432,42.5566,48.7905
1980-06-06 02:03:08,-1,nan,nan,nan,nan,1,4,nan,nan,1695,0.35708749,5.8653927,87.606552,54.672958,nan,nan,nan,nan,nan,nan
1980-06-06 02:03:48,2,-28.4567,19.2733,3.23667,0.528205,1,1,140281.0,201736.0,1695,0.35708755,5.8653927,87.602661,54.672974,5.56957,281.795,21.6347,37.8292,48.1235,57.7098
1980-06-06 02:04:29,2,-28.685,19.115,2.7875,0.217529,1,1,162156.0,166786.0,1695,0.35709471,5.8656635,87.597855,54.67598,4.93821,284.289,24.3065,33.108,51.7397,52.4733
1980-06-06 02:05:09,2,-28.97,19.04,0.8925,0.618238,1,1,146102.0,184729.0,1695,0.35710192,5.8659344,87.59697,54.679001,4.67429,276.074,17.0603,31.1611,49.1118,55.2237
1980-06-06 02:05:50,2,-29.49,18.2333,-0.186667,0.908246,1,1,124329.0,154465.0,1695,0.35710192,5.8659344,87.589157,54.679001,4.19229,272.731,21.1677,34.8283,45.3049,50.4978
1980-06-06 02:06:30,2,-29.98,17.45,-1.93333,1.17899,1,1,143982.0,187650.0,1695,0.35710907,5.8662052,87.584351,54.682007,5.96302,259.401,3.06228,-16.1406,48.7543,55.6585
1980-06-06 02:07:11,2,-28.4367,19.68,-0.666667,0.144607,1,1,158204.0,147526.0,1695,0.35711628,5.8664761,87.583466,54.685028,5.29458,279.919,31.9563,7.35337,51.1054,49.3505
1980-06-06 02:07:51,2,-29.4533,17.33,-5.25,0.435762,1,1,156210.0,138373.0,1695,0.35711628,5.8664761,87.575653,54.685028,4.21342,269.325,12.4362,-28.1159,50.7822,47.795
1980-06-06 02:08:32,2,-28.685,18.9325,-4.4,0.705474,1,1,138556.0,164432.0,1695,0.35707873,5.8635936,87.51474,54.628021,3.95278,290.687,32.5892,-29.4259,47.8267,52.1017